Clinton, OK

10:03 PM CST on February 19, 2017 (GMT -0600)
Clinton Municipal

Weather History for KCLK - November, 2013

Change the Weather History Date:

Wednesday, November 20, 2013

  Actual Average (KCSM) Record (KCSM)
Temperature  
Mean Temperature 58 °F -  
Max Temperature 64 °F 56 °F 82 °F (2007)
Min Temperature 51 °F 36 °F 30 °F (2000)
Degree Days  
Heating Degree Days 8    
Growing Degree Days 8 (Base 50)    
Moisture  
Dew Point 43 °F    
Average Humidity 60    
Maximum Humidity 77    
Minimum Humidity 41    
Precipitation  
Precipitation 0.00 in - - ()
Sea Level Pressure  
Sea Level Pressure 29.84 in    
Wind  
Wind Speed 18 mph (SSE)    
Max Wind Speed 25 mph    
Max Gust Speed 33 mph    
Visibility 10 miles    
Events      
Averages and records for this station are not official NWS values.
T = Trace of Precipitation, MM = Missing Value Source: NWS Daily Summary

Daily Weather History Graph

Daily Weather History Graph

Search for Another Location

Airport or City:

Trip Planner

Search our weather history database for the weather conditions in past years. The results will help you decide how hot, cold, wet, or windy it might be!

Date:

Astronomy

Nov. 20, 2013 Rise Set
Actual Time 7:16 AM CST 5:26 PM CST
Civil Twilight 6:49 AM CST 5:53 PM CST
Nautical Twilight 6:18 AM CST 6:24 PM CST
Astronomical Twilight 5:47 AM CST 6:54 PM CST
Moon 8:10 PM CST 9:42 AM CST
Length of Visible Light 11h 04m
Length of Day
10h 09m
Waning Gibbous, 91% of the Moon is Illuminated
Nov 20
Waning Gibbous
Nov 25
Last Quarter
Dec 2
New
Dec 9
First Quarter
Dec 17
Full

Hourly Weather History & Observations

Time (CST) Temp. Dew Point Humidity Pressure Visibility Wind Dir Wind Speed Gust Speed Precip Events Conditions
12:15 AM 53.6 °F 30.2 °F 41% 29.89 in 10.0 mi SSE 20.7 mph 25.3 mph N/A   Mostly Cloudy
12:35 AM 53.6 °F 30.2 °F 41% 29.89 in 10.0 mi SSE 18.4 mph 24.2 mph N/A   Mostly Cloudy
12:55 AM 53.6 °F 30.2 °F 41% 29.89 in 10.0 mi SSE 17.3 mph 24.2 mph N/A   Scattered Clouds
1:15 AM 53.6 °F 32.0 °F 44% 29.88 in 10.0 mi SSE 21.9 mph - N/A   Scattered Clouds
1:35 AM 53.6 °F 32.0 °F 44% 29.88 in 10.0 mi SSE 20.7 mph 27.6 mph N/A   Scattered Clouds
1:55 AM 53.6 °F 32.0 °F 44% 29.88 in 10.0 mi SSE 21.9 mph 28.8 mph N/A   Clear
2:15 AM 51.8 °F 32.0 °F 47% 29.88 in 10.0 mi SSE 19.6 mph 23.0 mph N/A   Clear
2:35 AM 51.8 °F 32.0 °F 47% 29.88 in 10.0 mi SSE 16.1 mph - N/A   Scattered Clouds
2:55 AM 51.8 °F 32.0 °F 47% 29.86 in 10.0 mi SSE 17.3 mph 23.0 mph N/A   Scattered Clouds
3:15 AM 51.8 °F 32.0 °F 47% 29.86 in 10.0 mi SSE 16.1 mph - N/A   Clear
3:35 AM 51.8 °F 33.8 °F 50% 29.86 in 10.0 mi SSE 16.1 mph 23.0 mph N/A   Scattered Clouds
3:55 AM 53.6 °F 33.8 °F 47% 29.86 in 10.0 mi SSE 15.0 mph - N/A   Overcast
4:15 AM 53.6 °F 35.6 °F 51% 29.85 in 10.0 mi SSE 19.6 mph 24.2 mph N/A   Overcast
4:35 AM 53.6 °F 35.6 °F 51% 29.85 in 10.0 mi South 18.4 mph 24.2 mph N/A   Overcast
4:55 AM 53.6 °F 35.6 °F 51% 29.85 in 10.0 mi SSE 19.6 mph 25.3 mph N/A   Overcast
5:15 AM 53.6 °F 37.4 °F 54% 29.84 in 10.0 mi SSE 20.7 mph 27.6 mph N/A   Overcast
5:35 AM 53.6 °F 37.4 °F 54% 29.85 in 10.0 mi South 23.0 mph 28.8 mph N/A   Overcast
5:55 AM 53.6 °F 37.4 °F 54% 29.84 in 10.0 mi South 24.2 mph 31.1 mph N/A   Overcast
6:15 AM 53.6 °F 39.2 °F 58% 29.83 in 10.0 mi South 21.9 mph 28.8 mph N/A   Overcast
6:35 AM 53.6 °F 41.0 °F 62% 29.83 in 10.0 mi South 24.2 mph 31.1 mph N/A   Overcast
6:55 AM 53.6 °F 41.0 °F 62% 29.83 in 10.0 mi South 21.9 mph 28.8 mph N/A   Overcast
7:15 AM 53.6 °F 41.0 °F 62% 29.84 in 10.0 mi SSE 18.4 mph 24.2 mph N/A   Overcast
7:35 AM 53.6 °F 41.0 °F 62% 29.84 in 10.0 mi South 19.6 mph 27.6 mph N/A   Overcast
7:55 AM 53.6 °F 41.0 °F 62% 29.84 in 10.0 mi SSE 17.3 mph 25.3 mph N/A   Overcast
8:15 AM 53.6 °F 41.0 °F 62% 29.85 in 10.0 mi SSE 15.0 mph 20.7 mph N/A   Overcast
8:35 AM 53.6 °F 41.0 °F 62% 29.86 in 10.0 mi SSE 16.1 mph - N/A   Overcast
8:55 AM 53.6 °F 42.8 °F 67% 29.86 in 10.0 mi SSE 17.3 mph 24.2 mph N/A   Overcast
9:15 AM 55.4 °F 42.8 °F 63% 29.86 in 10.0 mi South 25.3 mph 33.4 mph N/A   Overcast
9:35 AM 55.4 °F 44.6 °F 67% 29.86 in 10.0 mi South 23.0 mph 27.6 mph N/A   Overcast
9:55 AM 57.2 °F 44.6 °F 63% 29.86 in 10.0 mi South 23.0 mph 26.5 mph N/A   Mostly Cloudy
10:15 AM 59.0 °F 44.6 °F 59% 29.86 in 10.0 mi South 21.9 mph 29.9 mph N/A   Scattered Clouds
10:35 AM 60.8 °F 46.4 °F 59% 29.86 in 10.0 mi South 25.3 mph 32.2 mph N/A   Clear
10:55 AM 60.8 °F 46.4 °F 59% 29.85 in 10.0 mi South 24.2 mph 31.1 mph N/A   Clear
11:15 AM 60.8 °F 48.2 °F 63% 29.86 in 10.0 mi South 23.0 mph - N/A   Clear
11:35 AM 62.6 °F 48.2 °F 59% 29.85 in 10.0 mi South 18.4 mph 26.5 mph N/A   Scattered Clouds
11:55 AM 62.6 °F 50.0 °F 63% 29.84 in 10.0 mi South 20.7 mph 25.3 mph N/A   Scattered Clouds
12:15 PM 64.4 °F 50.0 °F 59% 29.83 in 10.0 mi South 21.9 mph 25.3 mph N/A   Scattered Clouds
12:35 PM 64.4 °F 50.0 °F 59% 29.82 in 10.0 mi South 18.4 mph 25.3 mph N/A   Mostly Cloudy
12:55 PM 64.4 °F 50.0 °F 59% 29.81 in 10.0 mi South 20.7 mph 25.3 mph N/A   Overcast
1:15 PM 64.4 °F 50.0 °F 59% 29.80 in 10.0 mi South 19.6 mph 26.5 mph N/A   Overcast
1:35 PM 62.6 °F 50.0 °F 63% 29.80 in 10.0 mi South 19.6 mph 24.2 mph N/A   Overcast
1:55 PM 62.6 °F 50.0 °F 63% 29.80 in 10.0 mi South 13.8 mph 23.0 mph N/A   Overcast
2:15 PM 64.4 °F 50.0 °F 59% 29.79 in 10.0 mi South 17.3 mph - N/A   Scattered Clouds
2:35 PM 62.6 °F 50.0 °F 63% 29.79 in 10.0 mi South 15.0 mph 20.7 mph N/A   Scattered Clouds
2:55 PM 62.6 °F 50.0 °F 63% 29.79 in 10.0 mi SSE 13.8 mph - N/A   Clear
3:15 PM 62.6 °F 50.0 °F 63% 29.80 in 10.0 mi SSE 13.8 mph - N/A   Clear
3:35 PM 62.6 °F 50.0 °F 63% 29.78 in 10.0 mi SSE 12.7 mph - N/A   Clear
3:55 PM 62.6 °F 50.0 °F 63% 29.79 in 10.0 mi SSE 15.0 mph 18.4 mph N/A   Clear
4:15 PM 62.6 °F 50.0 °F 63% 29.80 in 10.0 mi SSE 9.2 mph - N/A   Clear
4:35 PM 60.8 °F 50.0 °F 68% 29.80 in 10.0 mi SSE 10.4 mph - N/A   Clear
4:55 PM 60.8 °F 50.0 °F 68% 29.80 in 10.0 mi SE 10.4 mph - N/A   Clear
5:15 PM 60.8 °F 50.0 °F 68% 29.81 in 10.0 mi SSE 11.5 mph - N/A   Clear
5:35 PM 60.8 °F 50.0 °F 68% 29.81 in 10.0 mi SE 12.7 mph - N/A   Clear
5:55 PM 59.0 °F 48.2 °F 67% 29.82 in 10.0 mi SE 9.2 mph - N/A   Clear
6:15 PM 59.0 °F 46.4 °F 63% 29.83 in 10.0 mi SE 8.1 mph - N/A   Clear
6:35 PM 59.0 °F 46.4 °F 63% 29.83 in 10.0 mi SE 8.1 mph - N/A   Clear
6:55 PM 59.0 °F 46.4 °F 63% 29.83 in 10.0 mi ESE 10.4 mph - N/A   Scattered Clouds
7:15 PM 59.0 °F 46.4 °F 63% 29.84 in 10.0 mi SE 11.5 mph - N/A   Scattered Clouds
7:35 PM 59.0 °F 46.4 °F 63% 29.83 in 10.0 mi SE 11.5 mph - N/A   Clear
7:55 PM 57.2 °F 46.4 °F 67% 29.83 in 10.0 mi SE 12.7 mph - N/A   Clear
8:15 PM 57.2 °F 46.4 °F 67% 29.84 in 10.0 mi SE 11.5 mph - N/A   Clear
8:35 PM 57.2 °F 46.4 °F 67% 29.85 in 10.0 mi SSE 13.8 mph - N/A   Clear
8:55 PM 55.4 °F 44.6 °F 67% 29.85 in 10.0 mi SE 11.5 mph - N/A   Clear
9:15 PM 55.4 °F 44.6 °F 67% 29.88 in 10.0 mi SSE 11.5 mph - N/A   Clear
9:35 PM 55.4 °F 44.6 °F 67% 29.86 in 10.0 mi SE 11.5 mph - N/A   Scattered Clouds
9:55 PM 55.4 °F 46.4 °F 72% 29.87 in 10.0 mi SE 10.4 mph - N/A   Scattered Clouds
10:15 PM 55.4 °F 46.4 °F 72% 29.87 in 10.0 mi SE 10.4 mph - N/A   Clear
10:35 PM 55.4 °F 46.4 °F 72% 29.86 in 10.0 mi SE 10.4 mph - N/A   Clear
10:55 PM 55.4 °F 46.4 °F 72% 29.87 in 10.0 mi SSE 10.4 mph - N/A   Clear
11:15 PM 55.4 °F 46.4 °F 72% 29.87 in 10.0 mi SSE 11.5 mph - N/A   Clear
11:35 PM 55.4 °F 48.2 °F 77% 29.87 in 10.0 mi SSE 12.7 mph - N/A   Clear
11:55 PM 55.4 °F 48.2 °F 77% 29.87 in 10.0 mi SSE 12.7 mph - N/A   Scattered Clouds